FENGYUN 1C DEB

Satellite information

Favourite Embed

Satellite Type and Status

DEBRISIN ORBIT

Key statistics

Satellite FENGYUN 1C DEB at a glance.

Uptime

9670

Days in orbit

Revolutions

≈ 14.4

Per day

Orbit

SSO

Sun Synchronous Orbit

Inclination

98.4

Latest

Satellite identification and parameters

Extended collection of information and parameters for FENGYUN 1C DEB.

Object identification

Identified? True

Debris? True

Object name: FENGYUN 1C DEB

International designator: 1999-025BXW

Object number (NORAD): 31531

Object ID (CCSDS): 31531

Country: PEOPLES REPUBLIC OF CHINA (PRC)

Current information (Y/N): Y

RCS size: SMALL

Orbital parameters

Period: 100.332 minutes

Inclination: 98.3887 deg

SMA: 7152.422 km

Apoapsis: 950.648 km

Periapsis: 597.925 km

RAAN: 347.3971 deg

Eccentricy: 0.02465763

Argument of periapsis: 44.3119 deg

Mean anomaly: 317.7518 deg

Mean motion: 14.35235255 rev/day

Mean motion (dot): 0.00003998 rev/day2

B* drag term: 0.0010010196 1/REarth

Two-line elements (TLE)

Creation date: Oct. 28, 2025, 7:11 p.m.

Reference frame: TEME

Reference center: EARTH

Epoch: Oct. 28, 2025, 9:45 a.m. UTC

TLE line 0: 0 FENGYUN 1C DEB

TLE line 1: 1 31531U 99025BXW 25301.40674693 .00003998 00000-0 10010-2 0 9991

TLE line 2: 2 31531 98.3887 347.3971 0246576 44.3119 317.7518 14.35235255632844

Live tracking on map

Real-time ground track for satellite FENGYUN 1C DEB.

In-orbit conjunctions

A list of the most updated potential collisions computed for object FENGYUN 1C DEB.

Target Orbit TCA Probability of collision Miss distance Type
COSMOS 1904 LEO 2024-10-10 13:36:10 0.0001033633 308.0 (m) PAYLOAD

Associated space launch

Chinese polar orbiting meteorological satellite

FENGYUN 1C DEB was lifted into orbit during the mission ‘Long March 4B | Feng Yun 1C’, on board a Long March 4B space rocket.

The launch took place on May 10, 1999, 1:33 a.m. from Launch Complex 7.

For more information about the launch, click the button.

Launch to space Long March 4B | Feng Yun 1C
Long March 4B | Feng Yun 1C

Agency: N/A

Status: Launch Successful

Launch date: May 10, 1999, 1:33 a.m. UTC

Rocket: Long March 4B

Launch pad: Launch Complex 7

Location: Taiyuan Satellite Launch Center, People's Republic of China

...

Latest news about this satellite

There are no fresh news available about this satellite. Check back as we update our databases every day.


Newsletter sign-up

Weekly statistics, charts and insights to help you stay on top of the space industry.